Погода в Учебном

Россия / Кабардино-Балкарская Республика     43°46′46″N   43°55′45″E
темп.,
°C
ветер,
м/с
пор.,
м/с
влажн.,
%
обл.,
%
осадки,
мм/ч
давл.,
гПа
погр.,
м
23 октября, сб
сб2300:00+11з11540 0.0 102010
03:00+10зсз11600 0.0 102110
06:00+9з11720 0.0 102110
09:00+14юз11560 0.0 1021168
12:00+19в11370 0.0 1020567
15:00+20в22340 0.0 1019825
18:00+15вюв22480 0.0 101911
21:00+13юз01540 0.0 101910
24 октября, вс
вс2400:00+12з22600 0.0 101910
03:00+11зсз22675 0.0 102014
06:00+9зсз226754 0.0 102014
09:00+14ссз115293 0.0 1020220
12:00+17св2245100 0.0 1018725
15:00+18всв234543 0.0 1017965
18:00+14в2258100 0.0 101615
21:00+12в1160100 0.0 101610
25 октября, пн
пн2500:00+11ссв1160100 0.0 101510
03:00+11ссз2260100 0.0 101736
06:00+11ссз4984100 0.0 1019318
09:00+8ссз61083100 0.7 1023637
12:00+7ссз5786100 2.9 1026938
15:00+6сз4590100 6.5 1028797
18:00+5зсз4590100 2.6 1030754
21:00+6зюз3488100 4.4 1031358
26 октября, вт
вт2600:00+6зюз3488100 0.3 1031224
03:00+6юз3589100 0.3 1031154
06:00+6юз2284100 0.1 1032207
09:00+6ю2285100 0.2 1033417
12:00+9юв3363100 0.1 10311230
15:00+9юв2365100 0.1 1030849
18:00+8юв2371100 0.1 103187
21:00+8юв2473100 0.1 1030164
27 октября, ср
ср2700:00+5в37765 0.0 1030155
03:00+4в35875 0.0 1030119
06:00+3в36925 0.0 1030130
09:00+7в587431 0.0 1029513
12:00+9в566691 0.0 1027910
15:00+9вюв4564100 0.0 10261131
18:00+8в3572100 0.0 1026186
21:00+8в237894 0.0 1024109